Daneborg

KL  EN  DA
ASIAQ
Weather Now GREENLAND SURVEY
Updated [WGT/WGST] Temperature [°C] Wind [m/s] Air pressure [hPa] Relative humidity [%] Precipitation [mm]
Present Wind chill Speed Max
20.10 15:00-16,8-23,83,1 ⇓3,6101778n/a
20.10 14:00-16,9-22,32,1 ⇘2,6101779n/a
20.10 13:00-16,4-23,33,1 ⇓3,6101879n/a
20.10 12:00-16,0-22,93,1 ⇘3,6101977n/a
20.10 11:00-15,5-22,23,1 ⇘4,1101973n/a
20.10 10:00-15,8-23,84,1 ⇘5,1102080n/a
20.10 09:00-16,1-24,24,1 ⇓5,1102080n/a
20.10 08:00-15,7-23,13,6 ⇘4,1102180n/a
20.10 07:00-15,5-22,23,1 ⇓3,6102182n/a
20.10 06:00-15,6-22,43,1 ⇘3,6102180n/a
20.10 05:00-15,8-22,63,1 ⇘3,6102184n/a
20.10 04:00-15,7-22,53,1 ⇘4,1102184n/a
20.10 03:00-15,8-22,63,1 ⇘4,1102184n/a
20.10 02:00-16,1-23,03,1 ⇓3,6102186n/a
20.10 01:00-15,3-21,32,6 ⇘3,6102286n/a
20.10 00:00-15,3-19,21,5 ⇘2,6102286n/a
19.10 23:00-15,5-21,52,6 ⇘3,6102386n/a
19.10 22:00-16,2-20,21,5 ⇓2,1102385n/a
19.10 21:00-16,6-22,82,6 ⇘3,1102487n/a
19.10 20:00-16,4-21,72,1 ⇘2,6102487n/a
19.10 19:00-16,30,0n/an/a102587n/a
19.10 18:00-16,3-21,62,1 ⇘2,6102587n/a
19.10 17:00-15,6-22,43,1 ⇘3,6102685n/a
19.10 16:00-15,4-21,42,6 ⇘3,1102687n/a
19.10 15:00-14,7-19,82,1 ⇘2,1102788n/a
Position: (74.3075,-20.21694444)

[Back]